This demonstration page uses our WeatherBlox Daily Observations layout. Learn more.

Left ArrowRight Arrow

30.21309, -93.2044

Hourly Observations for February 21, 2022

Temp ( °F °C ) Dew Point ( °F °C ) Humidity (%) Winds ( mph kmh ) Pressure ( in mb ) Visibility ( mi km ) Precip ( " mm )
12:15 am 00:15 Cloudy 63 17.3 58 14.4 83 83 SSE 10 17 30.11 1020 10 16 0.00 0.00
12:35 am 00:35 Cloudy 63 17.3 58 14.6 84 84 SSE 9 15 30.09 1019 10 16 0.00 0.00
12:55 am 00:55 Cloudy 63 17.2 59 14.8 86 86 SSE 10 17 30.08 1019 10 16 0.00 0.00
1:15 am 01:15 Mostly Cloudy 64 17.6 60 15.5 88 88 SSE 12 19 30.07 1018 10 16 0.00 0.00
1:35 am 01:35 Cloudy 64 17.9 60 15.8 88 88 SSE 13 20 30.07 1018 10 16 0.00 0.00
1:55 am 01:55 Cloudy 64 17.9 61 16.1 89 89 SSE 12 19 30.06 1018 10 16 0.00 0.00
2:15 am 02:15 Cloudy 65 18.1 61 16.3 89 89 SSE 10 17 30.06 1018 10 16 0.00 0.00
2:35 am 02:35 Cloudy 65 18.4 62 16.6 89 89 SSE 12 19 30.05 1018 10 16 0.00 0.00
2:55 am 02:55 Cloudy 65 18.4 62 16.7 90 90 SSE 10 17 30.05 1018 10 16 0.00 0.00
3:15 am 03:15 Cloudy 65 18.3 62 16.8 91 91 S 9 15 30.05 1018 10 16 0.00 0.00
3:35 am 03:35 Cloudy 65 18.3 62 16.8 91 91 SSE 9 15 30.05 1018 10 16 0.00 0.00
3:55 am 03:55 Cloudy 65 18.5 63 17.1 92 92 S 7 11 30.05 1018 10 16 0.00 0.00
4:15 am 04:15 Cloudy 65 18.6 63 17.2 92 92 S 7 11 30.05 1018 10 16 0.00 0.00
4:35 am 04:35 Cloudy 66 18.7 63 17.4 92 92 S 6 9 30.05 1018 10 16 0.00 0.00
4:55 am 04:55 Cloudy 65 18.6 63 17.4 93 93 S 6 9 30.05 1018 10 16 0.00 0.00
5:15 am 05:15 Cloudy 65 18.5 63 17.3 93 93 SSE 6 9 30.05 1018 10 16 0.00 0.00
5:35 am 05:35 Cloudy 65 18.6 63 17.4 93 93 SSE 8 13 30.05 1018 10 16 0.00 0.00
6:00 am 06:00 Cloudy 66 19 64 18 94 94 SE 8 13 30.05 1018 10 16 0.00 0.00
6:47 am 06:47 Cloudy 66 19 64 18 94 94 S 7 11 30.05 1018 7 11 0.00 0.00
7:50 am 07:50 Cloudy with Mist and Fog 66 19 64 18 94 94 S 8 13 30.07 1018 6 10 0.00 0.00
8:48 am 08:48 Cloudy with Mist and Fog 68 20 66 19 94 94 S 8 13 30.08 1019 5 8 0.00 0.00
9:55 am 09:55 Cloudy with Mist and Fog 70 21 66 19 88 88 S 17 28 30.09 1019 5 8 0.00 0.00
10:55 am 10:55 Cloudy 73 23 66 19 78 78 SSW 25 41 30.07 1018 10 16 0.00 0.00
11:50 am 11:50 Cloudy 75 24 66 19 74 74 SSW 25 41 30.06 1018 10 16 0.00 0.00
12:54 pm 12:54 Cloudy 73 23 66 19 78 78 S 21 33 30.02 1017 10 16 0.00 0.00
1:54 pm 13:54 Cloudy 75 24 66 19 74 74 SSW 18 30 30.01 1016 10 16 0.00 0.00
2:50 pm 14:50 Cloudy 75 24 64 18 69 69 SSW 23 37 30.00 1016 10 16 0.00 0.00
3:52 pm 15:52 Cloudy 73 23 66 19 78 78 SSW 16 26 30.01 1016 10 16 0.00 0.00
4:54 pm 16:54 Cloudy 72 22 66 19 83 83 SSW 14 22 30.01 1016 10 16 0.00 0.00
5:50 pm 17:50 Cloudy 72 22 66 19 83 83 S 9 15 30.00 1016 10 16 0.00 0.00
6:55 pm 18:55 Cloudy 70 21 66 19 88 88 S 14 22 30.00 1016 10 16 0.00 0.00
7:56 pm 19:56 Cloudy 70 21 66 19 88 88 SSE 14 22 30.00 1016 10 16 0.00 0.00
8:54 pm 20:54 Cloudy 72 22 66 19 83 83 S 17 28 30.00 1016 10 16 0.00 0.00
9:48 pm 21:48 Cloudy 72 22 66 19 83 83 S 17 28 29.99 1016 10 16 0.00 0.00
10:15 pm 22:15 Cloudy 71 21.9 66 19.1 84 84 S 17 28 29.99 1016 10 16 0.00 0.00
10:35 pm 22:35 Cloudy 71 21.8 66 19.1 85 85 S 17 28 29.99 1016 10 16 0.00 0.00
10:55 pm 22:55 Cloudy 71 21.7 66 19 85 85 S 14 22 29.99 1016 10 16 0.00 0.00
11:15 pm 23:15 Cloudy 71 21.6 66 18.9 85 85 S 13 20 29.98 1015 10 16 0.00 0.00
11:35 pm 23:35 Cloudy 71 21.8 66 18.8 83 83 S 16 26 29.98 1015 10 16 0.00 0.00
11:55 pm 23:55 Cloudy 71 21.5 66 18.7 84 84 S 17 28 29.97 1015 10 16 0.00 0.00

Powered by AerisWeather